Regional Weather Roundup
Issued by NWS Midland/Odessa, TX

Skip options and go directly to product.
Home | Oldest Version | Next Version | Current Version | All | Text Only | Save Text | Print | Product List | Glossary On

Skip product version selection by date and time.   
748
ASUS44 KMAF 291310
RWRMAF
MIDLAND AREA WEATHER ROUNDUP
NATIONAL WEATHER SERVICE MIDLAND TX
800 AM CDT SAT AUG 29 2015

...IN SOUTHWEST TEXAS AND SOUTHEAST NEW MEXICO...

CITY           SKY/WX    TMP DP  RH WIND       PRES   REMARKS
ALPINE         CLOUDY    68  56  64 NE3       30.24S
ANDREWS        DRIZZLE   69  65  89 CALM      30.15R
ARTESIA        PTCLDY    64  64 100 SW3       30.18R
BIG SPRING     CLOUDY    70  61  73 SW3       30.13R
CARLSBAD       CLEAR     68  63  84 W5        30.15R
DRYDEN           N/A     73  60  63 VRB7      30.06R
FORT STOCKTON  LGT RAIN  73  52  47 SE8       30.10R
GUAD PASS      MOCLDY    63  56  78 NE22      30.26R
HOBBS          PTCLDY    66  66 100 VRB5      30.18R
MARFA          CLOUDY    66  55  68 NW5       30.21S
MIDLAND AIRPK  RAIN      72  65  78 NW3       30.14R
MIDLAND INTL   LGT RAIN  71  64  78 N10       30.12R
ODESSA         LGT RAIN  70  62  76 NE9       30.14R
PECOS          CLOUDY    74  62  67 NW10      30.10R
PRESIDIO       NOT AVBL
SEMINOLE       CLOUDY    68  64  88 NW3       30.16R
SNYDER         MOCLDY    74  61  64 NW3       30.09R
WINK           CLOUDY    72  65  78 N9        30.11R
$$
...OTHER STATIONS IN TEXAS...

CITY           SKY/WX    TMP DP  RH WIND       PRES   REMARKS
ABILENE        CLOUDY    77  55  46 SW14      30.05R
AMARILLO       CLOUDY    66  60  81 NW8       30.15R
AUSTIN         MOSUNNY   67  65  93 CALM      30.04R
BROWNSVILLE    SUNNY     71  67  87 NE3       29.99R
CORPUS CHRISTI MOSUNNY   71  62  73 N3        30.01R
DALLAS FTW     PTSUNNY   79  64  60 S8        30.00R
DEL RIO        CLEAR     72  61  68 E8        30.03R
EL PASO        MOCLDY    71  60  68 N8        30.14R
HOUSTON INT    MOSUNNY   72  70  93 CALM      30.03R
LUBBOCK        CLOUDY    70  64  81 SW6       30.14R
SAN ANGELO     CLOUDY    73  58  59 SW5       30.09R
SAN ANTONIO    SUNNY     72  64  76 NW3       30.05R
WACO           CLOUDY    77  65  66 S9        30.04R
WICHITA FALLS  NOT AVBL
$$
...OTHER LOCATIONS IN NEW MEXICO...

CITY           SKY/WX    TMP DP  RH WIND       PRES   REMARKS
ALAMAGORDO     MOCLDY    64  54  68 CALM      30.17R
ALBUQUERQUE    PTCLDY    67  51  56 N8        30.29R
CANNON AFB     CLOUDY    66  58  75 NW6       30.18R
CLOVIS         CLOUDY    64  57  77 N7        30.19R
HOLLOMAN AFB   CLOUDY    66  56  71 NW5       30.15R
ROSWELL        PTCLDY    65  61  87 N5        30.17R
RUIDOSO        PTCLDY    54  48  82 MISG      30.38R
SANTA FE       PTCLDY    55  51  86 NE7       30.36R
TRUTH OR CONSE MOCLDY    67  57  70 N5        30.21R
TUCUMCARI      PTCLDY    66  57  72 NW7       30.18R
$$

USA.gov is the U.S. government's official web portal to all federal, state and local government web resources and services.